{"data":{"norad_id":52337,"epoch":"2026-05-25T05:23:37.084992Z","epoch_age_seconds":58832,"freshness":"FRESH","line1":"1 52337U 22045G   26145.22473478  .00002927  00000+0  20203-3 0  9997","line2":"2 52337  53.2156 225.5444 0002288  59.1468 300.9748 15.08819792227195","mean_motion":15.08819792,"eccentricity":0.0002288,"inclination_deg":53.2156,"raan_deg":225.5444,"arg_perigee_deg":59.1468,"mean_anomaly_deg":300.9748,"bstar":0.00020203,"rev_number":22719,"period_min":95.438832896752,"perigee_km":538.22233225954,"apogee_km":541.38798259078,"semimajor_km":6917.9421574252,"source":"CELESTRAK","updated_at":"2026-05-25T13:38:17.113627Z"}}